Regional Weather Roundup
Issued by NWS

Home | Current Version | Previous Version | Text Only | Print | Product List | Glossary On
Versions: 1 2 3 4 5 6 7 8 9 10 11 12 13 14 15 16 17 18 19 20 21 22 23 24 25 26 27 28 29 30 31 32 33 34 35 36 37 38 39 40 41 42 43 44 45 46 47 48 49 50
000
ASUS43 KTOP 291159
RWRKS

WEATHER ROUNDUP FOR KANSAS
NATIONAL WEATHER SERVICE GOODLAND KS
700 AM CDT FRI AUG 29 2014

NOTE:  "FAIR" INDICATES FEW OR NO CLOUDS BELOW 12,000 FEET WITH NO
SIGNIFICANT WEATHER AND/OR OBSTRUCTIONS TO VISIBILITY.

KSZ001>006-013>018-027>032-041>047-291300-
NORTHWEST KANSAS

CITY           SKY/WX    TMP DP  RH WIND       PRES   REMARKS
GOODLAND       CLEAR     53  51  93 W6        29.98R
6HR MIN TEMP:  53; 6HR MAX TEMP:  59;

HAYS           MOCLDY    63  57  82 W8        29.88R
HILL CITY      MOCLDY    61  58  90 W5        29.90R
6HR MIN TEMP:  61; 6HR MAX TEMP:  67;

RUSSELL        MOCLDY    65  61  87 W12       29.85R
6HR MIN TEMP:  65; 6HR MAX TEMP:  71; 6HR PCP:  0.01;

$$

KSZ061>065-074>080-084>089-291300-
SOUTHWEST KANSAS

CITY           SKY/WX    TMP DP  RH WIND       PRES   REMARKS
DODGE CITY     CLEAR     61  57  87 W8        29.93R
6HR MIN TEMP:  61; 6HR MAX TEMP:  67;

ELKHART          N/A     58  50  75 W6          N/A
GARDEN CITY    CLEAR     57  56  96 W7        29.95S
6HR MIN TEMP:  57; 6HR MAX TEMP:  62;

GREAT BEND     MOCLDY    64  59  82 W7        29.88S
LIBERAL        CLEAR     61  54  77 W6        29.99R
$$

KSZ066>073-081>083-090>101-291300-
SOUTHEAST KANSAS

CITY           SKY/WX    TMP DP  RH WIND       PRES   REMARKS
CHANUTE        MOCLDY    71  64  78 CALM      29.87R
6HR MIN TEMP:  69; 6HR MAX TEMP:  77;

COFFEYVILLE    LGT RAIN  73  67  81 S9        29.88R
6HR MIN TEMP:  70; 6HR MAX TEMP:  77; 6HR PCP:  0.01;

HUTCHINSON     LGT RAIN  67  63  87 NE3       29.89R
6HR MIN TEMP:  67; 6HR MAX TEMP:  72; 6HR PCP:  0.13;

NEWTON         CLOUDY    66  59  77 SW5       29.93R
PARSONS        MOCLDY    74  66  76 S5        29.89R
6HR MIN TEMP:  68; 6HR MAX TEMP:  76;

WICHITA INTL   LGT RAIN  68  65  90 CALM      29.87S
6HR MIN TEMP:  68; 6HR MAX TEMP:  70; 6HR PCP: TRACE;

WICHITA JABRA  LGT RAIN  67  66  97 CALM      29.88R
6HR MIN TEMP:  67; 6HR MAX TEMP:  70; 6HR PCP:  0.02;

WINFIELD       CLOUDY    69  68  96 SW6       29.90R
6HR MIN TEMP:  69; 6HR MAX TEMP:  72; 6HR PCP:  0.01;

$$

KSZ007>012-019>026-033>040-048>060-102>105-291300-
NORTHEAST KANSAS

CITY           SKY/WX    TMP DP  RH WIND       PRES   REMARKS
CONCORDIA      LGT RAIN  66  64  93 S10       29.84R
6HR MIN TEMP:  66; 6HR MAX TEMP:  72; 6HR PCP:  0.20;

EMPORIA        CLOUDY    69  64  84 SE5       29.87R
6HR MIN TEMP:  69; 6HR MAX TEMP:  75; 6HR PCP: TRACE;

LAWRENCE       MOCLDY    71  65  81 CALM      29.86S HAZE
6HR MIN TEMP:  69; 6HR MAX TEMP:  77;

MANHATTAN      CLOUDY    69  64  84 SW7       29.85R
6HR MIN TEMP:  69; 6HR MAX TEMP:  75;

OLATHE IND     MOCLDY    71  65  81 SW3       29.88R
6HR MIN TEMP:  70; 6HR MAX TEMP:  74;

OLATHE EXE     PTCLDY    70  64  81 CALM      29.87R
6HR MIN TEMP:  69; 6HR MAX TEMP:  73;

SALINA         LGT RAIN  68  64  87 SW5       29.86S
6HR MIN TEMP:  68; 6HR MAX TEMP:  75; 6HR PCP:  0.01;

TOPEKA BILLARD PTCLDY    71  67  87 SE5       29.85S
6HR MIN TEMP:  71; 6HR MAX TEMP:  79;

TOPEKA FORBES  MOCLDY    70  65  84 SE8       29.85S
6HR MIN TEMP:  70; 6HR MAX TEMP:  75;

$$


USA.gov is the U.S. government's official web portal to all federal, state and local government web resources and services.